GW0175 Weather Reports


time (UTC)temp
C
wind
direction
speed
KPH
gust
KPH
rain 1hr
cm
rain 24hr
cm
rain mn
cm
humidity
%
barometer
mb
20260504194907 29 308 3.2 16.1 0.00 0.00 0.00 20 1007.1
20260504194403 28 315 4.8 11.3 0.00 0.00 0.00 19 1006.9
20260504193859 29 286 1.6 11.3 0.00 0.00 0.00 19 1007.1
20260504193356 28 248 12.9 20.9 0.00 0.00 0.00 19 1007.4
20260504192855 28 259 3.2 14.5 0.00 0.00 0.00 20 1007.2
20260504192352 28 258 6.4 14.5 0.00 0.00 0.00 19 1007.1
20260504191850 29 228 8.0 12.9 0.00 0.00 0.00 20 1007.3
20260504191348 28 227 8.0 12.9 0.00 0.00 0.00 19 1007.2
20260504190843 28 262 6.4 16.1 0.00 0.00 0.00 19 1007.5
20260504190339 28 247 14.5 19.3 0.00 0.00 0.00 20 1007.4
20260504185836 29 355 3.2 16.1 0.00 0.00 0.00 20 1007.5
20260504185333 28 213 8.0 12.9 0.00 0.00 0.00 20 1007.8
20260504184829 28 261 1.6 8.0 0.00 0.00 0.00 20 1007.7
20260504184325 28 281 4.8 11.3 0.00 0.00 0.00 20 1008.0
20260504183821 28 252 6.4 14.5 0.00 0.00 0.00 20 1007.8
20260504183319 28 303 8.0 11.3 0.00 0.00 0.00 20 1007.9
20260504182816 28 303 4.8 11.3 0.00 0.00 0.00 21 1008.0
20260504182314 28 294 1.6 20.9 0.00 0.00 0.00 21 1008.0
20260504181811 27 254 4.8 17.7 0.00 0.00 0.00 22 1007.8
20260504181308 28 294 3.2 16.1 0.00 0.00 0.00 23 1008.0
20260504180807 28 321 4.8 16.1 0.00 0.00 0.00 24 1008.2
20260504180305 27 244 8.0 17.7 0.00 0.00 0.00 24 1008.4
20260504175803 27 263 4.8 25.7 0.00 0.00 0.00 25 1008.0
20260504175259 27 235 12.9 17.7 0.00 0.00 0.00 25 1008.5
20260504174757 27 251 19.3 20.9 0.00 0.00 0.00 25 1008.7
20260504174255 27 249 6.4 20.9 0.00 0.00 0.00 27 1008.5
20260504173751 27 247 8.0 24.1 0.00 0.00 0.00 27 1008.8
20260504173248 27 238 6.4 24.1 0.00 0.00 0.00 28 1008.6
20260504172745 27 264 11.3 17.7 0.00 0.00 0.00 28 1008.7
20260504172241 26 246 9.7 20.9 0.00 0.00 0.00 27 1008.8
20260504171737 26 225 16.1 24.1 0.00 0.00 0.00 29 1009.0
20260504171235 26 251 9.7 12.9 0.00 0.00 0.00 29 1008.9
20260504170732 26 246 8.0 11.3 0.00 0.00 0.00 29 1009.0
20260504170229 26 225 4.8 17.7 0.00 0.00 0.00 29 1009.0
20260504160147 23 155 4.8 8.0 0.00 0.00 0.00 50 1009.7
20260504151115 20 174 6.4 8.0 0.00 0.00 0.00 62 1010.2
20260504150613 19 174 6.4 8.0 0.00 0.00 0.00 65 1010.3
20260504150109 18 146 3.2 9.7 0.00 0.00 0.00 66 1010.1
20260504141038 16 151 4.8 8.0 0.00 0.00 0.00 76 1010.6
20260504140534 16 166 4.8 6.4 0.00 0.00 0.00 76 1010.6
20260504130459 13 29 0.0 3.2 0.00 0.00 0.00 86 1010.3
20260504110346 13 251 0.0 1.6 0.00 0.00 0.00 83 1009.1
20260504100303 13 81 0.0 3.2 0.00 0.00 0.00 78 1009.4
20260504081657 15 145 0.0 3.2 0.00 0.00 0.00 72 1009.9
20260504081153 15 157 3.2 3.2 0.00 0.00 0.00 71 1009.9
20260504080649 16 162 0.0 4.8 0.00 0.00 0.00 70 1010.0
20260504080146 15 165 3.2 6.4 0.00 0.00 0.00 70 1009.9
20260504070114 16 180 0.0 4.8 0.00 0.00 0.00 69 1011.0
20260504050503 16 132 0.0 4.8 0.00 0.00 0.00 68 1011.2
20260504045959 16 140 0.0 4.8 0.00 0.00 0.00 66 1011.0
20260504045455 17 112 3.2 4.8 0.00 0.00 0.00 64 1011.2
20260504044951 17 145 0.0 4.8 0.00 0.00 0.00 63 1011.0
20260504044449 17 156 3.2 4.8 0.00 0.00 0.00 62 1011.2
20260504043946 17 159 3.2 6.4 0.00 0.00 0.00 61 1011.0
20260504043443 18 154 4.8 8.0 0.00 0.00 0.00 60 1011.1
20260504042941 17 175 0.0 6.4 0.00 0.00 0.00 60 1011.2
20260504042437 18 158 3.2 4.8 0.00 0.00 0.00 60 1011.3
20260504041934 18 154 3.2 4.8 0.00 0.00 0.00 60 1011.3
20260504041430 18 166 1.6 4.8 0.00 0.00 0.00 59 1011.4
20260504040926 18 159 4.8 4.8 0.00 0.00 0.00 58 1011.2
20260504040424 18 172 0.0 4.8 0.00 0.00 0.00 58 1011.2
20260504035920 18 160 1.6 6.4 0.00 0.00 0.00 57 1011.4
20260504035417 18 149 4.8 6.4 0.00 0.00 0.00 56 1011.2
20260504034914 18 186 0.0 6.4 0.00 0.00 0.00 56 1011.3
20260504034412 18 180 3.2 9.7 0.00 0.00 0.00 57 1011.4
20260504033908 18 220 4.8 9.7 0.00 0.00 0.00 60 1011.4
20260504033406 18 210 3.2 8.0 0.00 0.00 0.00 60 1011.4
20260504032903 18 237 3.2 4.8 0.00 0.00 0.00 59 1011.2
20260504032400 18 236 3.2 6.4 0.00 0.00 0.00 58 1011.4
20260504031856 18 227 0.0 8.0 0.00 0.00 0.00 59 1011.2
20260504031353 17 251 0.0 3.2 0.00 0.00 0.00 62 1011.4
20260504030850 18 151 0.0 3.2 0.00 0.00 0.00 61 1011.3
20260504030347 18 152 3.2 3.2 0.00 0.00 0.00 58 1011.4
20260504025843 18 187 0.0 3.2 0.00 0.00 0.00 58 1011.1
20260504025340 19 140 3.2 3.2 0.00 0.00 0.00 57 1010.9
20260504024837 19 180 0.0 3.2 0.00 0.00 0.00 56 1010.8
20260504024333 19 166 0.0 3.2 0.00 0.00 0.00 56 1010.8
20260504023830 19 180 0.0 3.2 0.00 0.00 0.00 55 1010.9
20260504023327 19 234 1.6 3.2 0.00 0.00 0.00 53 1011.0
20260504022823 20 229 3.2 4.8 0.00 0.00 0.00 53 1011.0
20260504022320 20 180 0.0 4.8 0.00 0.00 0.00 53 1010.7
20260504021816 20 111 0.0 3.2 0.00 0.00 0.00 52 1010.6
20260504021314 20 270 0.0 4.8 0.00 0.00 0.00 52 1010.6
20260504020811 20 243 0.0 4.8 0.00 0.00 0.00 52 1010.3
20260504020308 20 140 3.2 4.8 0.00 0.00 0.00 51 1010.8
20260504015803 21 167 0.0 6.4 0.00 0.00 0.00 51 1010.6
20260504015300 21 154 3.2 11.3 0.00 0.00 0.00 50 1010.7
20260504014755 21 180 3.2 9.7 0.00 0.00 0.00 49 1010.2
20260504014252 21 205 4.8 9.7 0.00 0.00 0.00 49 1010.4
20260504013750 21 202 4.8 8.0 0.00 0.00 0.00 49 1010.2
20260504013248 21 162 4.8 9.7 0.00 0.00 0.00 48 1010.6
20260504012743 21 181 8.0 11.3 0.00 0.00 0.00 48 1010.4
20260504012242 22 167 4.8 6.4 0.00 0.00 0.00 47 1010.3
20260504011738 22 178 4.8 8.0 0.00 0.00 0.00 47 1010.7
20260504011235 22 227 4.8 9.7 0.00 0.00 0.00 47 1010.4
20260504010731 22 204 3.2 6.4 0.00 0.00 0.00 46 1010.6
20260504010227 22 215 1.6 8.0 0.00 0.00 0.00 46 1010.6
20260504005724 22 230 6.4 6.4 0.00 0.00 0.00 46 1010.6
20260504005221 23 241 4.8 11.3 0.00 0.00 0.00 45 1010.7
20260504004719 23 204 3.2 9.7 0.00 0.00 0.00 45 1010.9
20260504004215 23 171 3.2 8.0 0.00 0.00 0.00 44 1010.6
20260504003712 23 234 8.0 11.3 0.00 0.00 0.00 41 1010.6
20260504003209 24 238 6.4 6.4 0.00 0.00 0.00 39 1010.7
20260504002706 24 253 4.8 8.0 0.00 0.00 0.00 39 1010.6
20260504002203 24 258 8.0 11.3 0.00 0.00 0.00 38 1010.7
20260504001701 24 241 8.0 12.9 0.00 0.00 0.00 37 1010.8
20260504001157 24 227 4.8 12.9 0.00 0.00 0.00 37 1010.9
20260504000654 24 237 8.0 11.3 0.00 0.00 0.00 36 1010.9
20260504000151 24 249 9.7 12.9 0.00 0.00 0.00 37 1010.9
20260503235649 25 218 4.8 11.3 0.00 0.00 0.00 36 1010.8
20260503235145 25 258 8.0 11.3 0.00 0.00 0.00 36 1011.0
20260503234644 25 270 0.0 8.0 0.00 0.00 0.00 35 1011.0
20260503234141 25 203 3.2 11.3 0.00 0.00 0.00 38 1011.2
20260503233638 25 208 0.0 8.0 0.00 0.00 0.00 39 1011.3
20260503233133 25 164 8.0 17.7 0.00 0.00 0.00 40 1011.2
20260503232631 24 159 14.5 17.7 0.00 0.00 0.00 41 1011.1
20260503232128 24 250 6.4 17.7 0.00 0.00 0.00 41 1011.1
20260503231626 24 181 8.0 20.9 0.00 0.00 0.00 42 1011.3
20260503231122 24 192 6.4 19.3 0.00 0.00 0.00 42 1011.5
20260503230619 24 152 3.2 19.3 0.00 0.00 0.00 42 1011.4
20260503230116 24 153 6.4 14.5 0.00 0.00 0.00 42 1011.3
20260503225614 25 225 4.8 12.9 0.00 0.00 0.00 41 1011.3
20260503225113 24 161 4.8 14.5 0.00 0.00 0.00 42 1011.4
20260503224611 24 151 9.7 20.9 0.00 0.00 0.00 42 1011.6
20260503224109 23 195 8.0 22.5 0.00 0.00 0.00 43 1011.6
20260503223607 23 159 11.3 25.7 0.00 0.00 0.00 43 1011.6
20260503223102 23 167 8.0 27.4 0.00 0.00 0.00 43 1011.4
20260503222600 23 175 8.0 14.5 0.00 0.00 0.00 43 1011.5
20260503222058 24 160 16.1 16.1 0.00 0.00 0.00 42 1011.8
20260503221556 24 161 8.0 22.5 0.00 0.00 0.00 42 1011.5
20260503221053 24 179 11.3 22.5 0.00 0.00 0.00 42 1011.6
20260503220549 23 173 0.0 17.7 0.00 0.00 0.00 42 1011.9
20260503220046 24 202 8.0 17.7 0.00 0.00 0.00 41 1012.2
20260503215543 24 155 12.9 25.7 0.00 0.00 0.00 41 1012.2
20260503215040 25 165 6.4 14.5 0.00 0.00 0.00 40 1012.3
20260503214539 24 155 11.3 22.5 0.00 0.00 0.00 40 1012.5
20260503214035 25 237 9.7 20.9 0.00 0.00 0.00 40 1012.5
20260503213533 25 131 6.4 24.1 0.00 0.00 0.00 40 1012.9
20260503213029 24 170 8.0 17.7 0.00 0.00 0.00 42 1012.7
20260503212527 23 172 14.5 24.1 0.00 0.00 0.00 42 1012.9
20260503212024 23 173 9.7 25.7 0.00 0.00 0.00 42 1012.9
20260503211521 23 184 6.4 19.3 0.00 0.00 0.00 41 1013.2
20260503211017 23 152 14.5 14.5 0.00 0.00 0.00 42 1013.5
20260503210514 23 152 11.3 17.7 0.00 0.00 0.00 42 1013.3
20260503210009 23 169 3.2 11.3 0.00 0.00 0.00 43 1013.8
20260503205506 23 166 16.1 16.1 0.00 0.00 0.00 43 1013.8
20260503205003 23 163 14.5 17.7 0.00 0.00 0.00 43 1014.1
20260503204500 23 128 8.0 17.7 0.00 0.00 0.00 42 1013.8
20260503203956 23 165 14.5 25.7 0.00 0.00 0.00 41 1014.2
20260503203454 23 194 8.0 14.5 0.00 0.00 0.00 43 1014.3
20260503202950 23 164 11.3 20.9 0.00 0.00 0.00 42 1014.3
20260503202449 23 160 6.4 12.9 0.00 0.00 0.00 42 1014.5
20260503201947 23 155 6.4 22.5 0.00 0.00 0.00 43 1014.5
20260503201444 23 169 9.7 16.1 0.00 0.00 0.00 42 1014.7
20260503200941 23 196 11.3 17.7 0.00 0.00 0.00 43 1014.8
20260503200438 23 174 11.3 17.7 0.00 0.00 0.00 44 1014.7
20260503195934 22 220 11.3 17.7 0.00 0.00 0.00 43 1014.7
20260503195432 22 189 8.0 20.9 0.00 0.00 0.00 43 1014.8